STARLINK-34263, 64164

Orbit data source: Space-Track

STARLINK-34263, 64164 is a payload satellite owned by SpaceX/Seattle (US) in SSO that was launched on Tue, 27 May 2025 UTC via an FALCON 9 launch vehicle from the Air Force Western Test Range (AFWTR). Payload-class satellites include a variety of spacecraft equipped with specific instruments for various scientific and technological missions. These include communications satellites like Starlink; space stations such as the ISS; scientific satellites like the Hubble; Earth observation satellites from companies like Planet Labs, Umbra, and HawkEye 360; GPS; miniature CubeSats for education and research; and military/defense satellites.

Loading next visibility...
Identifier
64164, 2025-112U
Orbit
SSO
Country
Flag of USUS
Related business
Manufacturer
SpaceX/Seattle
Mission
Operational Commercial Communications
Bus & Motor
STARLINK V2MO, Unknown motor
Mass
575 kg wet, ~530 kg dry
Launch date (UTC)
2025-05-27 (1 year ago)
Launch vehicle
FALCON 9
Launch site
Air Force Western Test Range (AFWTR)
Object type
Payload
Rocket body
Debris
Shape & HBR
Box + 2 Pan, 17.7 m
Radar Cross Section
36.964 m², Large (>1 m²)

Expand to show TLE details & history
Last TLE update: 7 hours ago

TLE from 7 hours ago
0 STARLINK-34263
1 64164U 25112U   26145.42551367  .00007371  00000-0  51430-3 0  9997
2 64164  97.4481 196.7714 0001571 179.5674 180.5555 15.05656087 54858
Epoch: 2026-05-25T10:12Z
TLE epoch observation values (Epoch: 2026-05-25T10:12:44.381Z)
Latitude
0.00002°
Longitude
160.57299°
Altitude
553.651 km
Speed
7.584 km/s
True Right ascension
13h 07m 05s
True Declination
0° 00' 00"
Sunlit
Object was in full shadow at epoch
Visualization orbit readout
Latitude
Unknown
Longitude
Unknown
Altitude
Unknown
Speed
Unknown
Apparent Right ascension
Unknown
Apparent Declination
Unknown
Sunlit
N/A
Visualization observer readout
Local Sidereal Time
02:49:50
Azimuth
Unknown
Elevation
Unknown
Doppler factor
Unknown
Orbital elements
Apogee altitude
547.567 km
Perigee altitude
545.391 km
Semi-major axis
6,924.616 km
Eccentricity
0.00016
Inclination
97.4481°
RAAN
196.7714°
Arg. of periapsis
179.5674°
True anomaly
180.55533°
Mean anomaly
180.5555°
Eccentric anomaly
180.55541°
Mean motion
3.7666 °/min
Orbital period
95.58 mins
BSTAR
0.0005143
Loading maneuver chart data...
Computing Atmospheric mass density...
Loading historical data...
Loading historical data...
Loading historical data...
Loading historical data...
Loading historical data...
Loading historical data...
Loading historical data...

Documentation

Showing up to 5 results
|